• In Austria
  • List of Countries
  • For 7 days
  • Water Temperature
  • Satellite Maps
  • Weather Map
  • News
  • Weather Widgets
  • user-avatar
    Login

    Hourly Weather Ondjiwa

    Today, 21 May, Monday

    Time Temperature Precipitation Wind Pressure Humidity
    00:00 +21°C° 0 mm 2 mps 667 mmHg 26%
    01:00 +20°C° 0 mm 2 mps 667 mmHg 25%
    02:00 +19°C° 0 mm 2 mps 667 mmHg 24%
    03:00 +18°C° 0 mm 2 mps 667 mmHg 23%
    04:00 +18°C° 0 mm 2 mps 667 mmHg 23%
    05:00 +19°C° 0 mm 1 mps 667 mmHg 23%
    06:00 +19°C° 0 mm 1 mps 668 mmHg 23%
    07:00 +19°C° 0 mm 1 mps 668 mmHg 23%
    08:00 +22°C° 0 mm 1 mps 669 mmHg 20%
    09:00 +25°C° 0 mm 1 mps 670 mmHg 18%
    10:00 +28°C° 0 mm 1 mps 670 mmHg 16%
    11:00 +30°C° 0 mm 1 mps 670 mmHg 16%
    12:00 +31°C° 0 mm 1 mps 670 mmHg 16%
    13:00 +33°C° 0 mm 1 mps 670 mmHg 16%
    14:00 +32°C° 0 mm 1 mps 669 mmHg 16%
    15:00 +32°C° 0 mm 1 mps 668 mmHg 16%
    16:00 +31°C° 0 mm 2 mps 668 mmHg 16%
    17:00 +29°C° 0 mm 2 mps 668 mmHg 19%
    18:00 +26°C° 0 mm 2 mps 667 mmHg 22%
    19:00 +24°C° 0 mm 2 mps 667 mmHg 25%
    20:00 +23°C° 0 mm 2 mps 667 mmHg 26%
    21:00 +23°C° 0 mm 2 mps 668 mmHg 27%
    22:00 +21°C° 0 mm 2 mps 668 mmHg 28%
    23:00 +21°C° 0 mm 2 mps 668 mmHg 29%

    Tomorrow, 22 May, Tuesday

    Time Temperature Precipitation Wind Pressure Humidity
    00:00 +20°C° 0 mm 2 mps 668 mmHg 30%
    01:00 +20°C° 0 mm 2 mps 668 mmHg 31%
    02:00 +20°C° 0 mm 2 mps 668 mmHg 32%
    03:00 +19°C° 0 mm 2 mps 668 mmHg 33%
    04:00 +20°C° 0 mm 1 mps 668 mmHg 35%
    05:00 +20°C° 0 mm 1 mps 668 mmHg 37%
    06:00 +20°C° 0 mm 1 mps 668 mmHg 40%
    07:00 +20°C° 0 mm 1 mps 669 mmHg 42%
    08:00 +22°C° 0 mm 1 mps 669 mmHg 38%
    09:00 +25°C° 0 mm 2 mps 670 mmHg 34%
    10:00 +28°C° 0 mm 2 mps 671 mmHg 30%
    11:00 +29°C° 0 mm 2 mps 671 mmHg 27%
    12:00 +30°C° 0 mm 3 mps 670 mmHg 25%
    13:00 +31°C° 0 mm 3 mps 670 mmHg 23%
    14:00 +31°C° 0 mm 3 mps 670 mmHg 23%
    15:00 +30°C° 0 mm 3 mps 669 mmHg 23%
    16:00 +30°C° 0 mm 2 mps 669 mmHg 23%
    17:00 +28°C° 0 mm 2 mps 669 mmHg 26%
    18:00 +26°C° 0 mm 2 mps 669 mmHg 30%
    19:00 +24°C° 0 mm 1 mps 669 mmHg 33%
    20:00 +23°C° 0 mm 1 mps 669 mmHg 34%
    21:00 +22°C° 0 mm 1 mps 669 mmHg 35%
    22:00 +22°C° 0 mm 1 mps 670 mmHg 36%
    23:00 +20°C° 0 mm 2 mps 669 mmHg 38%

    Day after tomorrow, 23 May, Wednesday

    Time Temperature Precipitation Wind Pressure Humidity
    00:00 +19°C° 0 mm 2 mps 669 mmHg 39%
    01:00 +19°C° 0 mm 2 mps 669 mmHg 41%
    02:00 +18°C° 0 mm 2 mps 669 mmHg 42%
    03:00 +19°C° 0 mm 1 mps 669 mmHg 44%
    04:00 +18°C° 0 mm 1 mps 668 mmHg 45%
    05:00 +17°C° 0 mm 2 mps 669 mmHg 46%
    06:00 +17°C° 0 mm 2 mps 669 mmHg 46%
    07:00 +17°C° 0 mm 2 mps 670 mmHg 46%
    08:00 +21°C° 0 mm 2 mps 671 mmHg 38%
    09:00 +25°C° 0 mm 3 mps 672 mmHg 30%
    10:00 +29°C° 0 mm 3 mps 673 mmHg 22%
    11:00 +30°C° 0 mm 4 mps 672 mmHg 20%
    12:00 +32°C° 0 mm 4 mps 672 mmHg 17%
    13:00 +33°C° 0 mm 4 mps 671 mmHg 15%
    14:00 +33°C° 0 mm 4 mps 671 mmHg 15%
    15:00 +32°C° 0 mm 4 mps 670 mmHg 16%
    16:00 +32°C° 0 mm 4 mps 670 mmHg 16%
    17:00 +28°C° 0 mm 3 mps 670 mmHg 20%
    18:00 +26°C° 0 mm 3 mps 670 mmHg 23%
    19:00 +23°C° 0 mm 2 mps 670 mmHg 27%
    20:00 +23°C° 0 mm 2 mps 670 mmHg 28%
    21:00 +21°C° 0 mm 2 mps 670 mmHg 30%
    22:00 +20°C° 0 mm 2 mps 670 mmHg 31%
    23:00 +19°C° 0 mm 2 mps 670 mmHg 32%

    24 May, Thursday

    Time Temperature Precipitation Wind Pressure Humidity
    00:00 +19°C° 0 mm 2 mps 670 mmHg 34%
    01:00 +18°C° 0 mm 2 mps 669 mmHg 35%
    02:00 +17°C° 0 mm 2 mps 669 mmHg 36%
    03:00 +17°C° 0 mm 2 mps 669 mmHg 38%
    04:00 +16°C° 0 mm 2 mps 669 mmHg 39%
    05:00 +16°C° 0 mm 2 mps 669 mmHg 40%
    06:00 +16°C° 0 mm 2 mps 670 mmHg 41%
    07:00 +16°C° 0 mm 2 mps 670 mmHg 42%
    08:00 +20°C° 0 mm 3 mps 671 mmHg 35%
    09:00 +25°C° 0 mm 4 mps 672 mmHg 28%
    10:00 +28°C° 0 mm 4 mps 672 mmHg 21%
    11:00 +29°C° 0 mm 4 mps 672 mmHg 19%
    12:00 +30°C° 0 mm 4 mps 671 mmHg 17%
    13:00 +32°C° 0 mm 4 mps 670 mmHg 16%
    14:00 +32°C° 0 mm 4 mps 670 mmHg 16%
    15:00 +32°C° 0 mm 4 mps 670 mmHg 16%
    16:00 +30°C° 0 mm 3 mps 669 mmHg 16%
    17:00 +28°C° 0 mm 3 mps 669 mmHg 19%
    18:00 +25°C° 0 mm 2 mps 669 mmHg 23%
    19:00 +23°C° 0 mm 1 mps 669 mmHg 26%
    20:00 +21°C° 0 mm 2 mps 669 mmHg 27%
    21:00 +20°C° 0 mm 2 mps 669 mmHg 28%
    22:00 +19°C° 0 mm 2 mps 669 mmHg 29%
    23:00 +19°C° 0 mm 2 mps 669 mmHg 31%

    25 May, Friday

    Time Temperature Precipitation Wind Pressure Humidity
    00:00 +18°C° 0 mm 2 mps 669 mmHg 33%
    01:00 +17°C° 0 mm 2 mps 668 mmHg 35%
    02:00 +17°C° 0 mm 2 mps 668 mmHg 40%
    03:00 +16°C° 0 mm 2 mps 668 mmHg 45%
    04:00 +15°C° 0 mm 2 mps 668 mmHg 50%
    05:00 +15°C° 0 mm 2 mps 668 mmHg 52%
    06:00 +15°C° 0 mm 2 mps 669 mmHg 54%
    07:00 +15°C° 0 mm 2 mps 669 mmHg 56%
    08:00 +19°C° 0 mm 2 mps 670 mmHg 46%
    09:00 +24°C° 0 mm 3 mps 671 mmHg 36%
    10:00 +28°C° 0 mm 4 mps 671 mmHg 26%
    11:00 +29°C° 0 mm 4 mps 671 mmHg 23%
    12:00 +30°C° 0 mm 4 mps 670 mmHg 20%
    13:00 +32°C° 0 mm 4 mps 670 mmHg 17%
    14:00 +32°C° 0 mm 4 mps 669 mmHg 18%
    15:00 +30°C° 0 mm 4 mps 669 mmHg 18%
    16:00 +30°C° 0 mm 3 mps 668 mmHg 19%
    17:00 +28°C° 0 mm 3 mps 668 mmHg 23%
    18:00 +25°C° 0 mm 2 mps 668 mmHg 28%
    19:00 +23°C° 0 mm 2 mps 668 mmHg 32%
    20:00 +21°C° 0 mm 2 mps 668 mmHg 35%
    21:00 +20°C° 0 mm 3 mps 668 mmHg 37%
    22:00 +20°C° 0 mm 3 mps 668 mmHg 40%
    23:00 +19°C° 0 mm 3 mps 668 mmHg 43%

    26 May, Saturday

    Time Temperature Precipitation Wind Pressure Humidity
    00:00 +18°C° 0 mm 3 mps 668 mmHg 45%
    01:00 +18°C° 0 mm 3 mps 668 mmHg 47%
    02:00 +17°C° 0 mm 3 mps 668 mmHg 50%
    03:00 +17°C° 0 mm 2 mps 668 mmHg 53%
    04:00 +16°C° 0 mm 2 mps 667 mmHg 55%
    05:00 +16°C° 0 mm 2 mps 668 mmHg 57%
    06:00 +16°C° 0 mm 2 mps 668 mmHg 58%
    07:00 +16°C° 0 mm 2 mps 669 mmHg 59%
    08:00 +20°C° 0 mm 3 mps 670 mmHg 49%
    09:00 +23°C° 0 mm 4 mps 670 mmHg 38%
    10:00 +28°C° 0 mm 5 mps 671 mmHg 27%
    11:00 +29°C° 0 mm 5 mps 670 mmHg 24%
    12:00 +30°C° 0 mm 5 mps 670 mmHg 21%
    13:00 +32°C° 0 mm 5 mps 669 mmHg 18%
    14:00 +32°C° 0 mm 4 mps 669 mmHg 18%
    15:00 +32°C° 0 mm 4 mps 669 mmHg 18%
    16:00 +32°C° 0 mm 4 mps 668 mmHg 18%
    17:00 +28°C° 0 mm 3 mps 668 mmHg 22%
    18:00 +26°C° 0 mm 3 mps 668 mmHg 27%
    19:00 +23°C° 0 mm 2 mps 668 mmHg 31%
    20:00 +21°C° 0 mm 2 mps 668 mmHg 34%
    21:00 +21°C° 0 mm 2 mps 668 mmHg 38%
    22:00 +20°C° 0 mm 3 mps 669 mmHg 41%
    23:00 +20°C° 0 mm 3 mps 668 mmHg 45%
    Show more